[[{"header":{"parameterUnit":"m.s-1","parameterCategory":1,"la1":30.2991,"la2":30.254,"lo1":-89.0895,"lo2":-89.0444,"dy":0.0017,"dx":0.0017,"nx":28,"ny":28,"refTime":"2023-08-02T03:00:00:Z","depth":0,"parameterNumber":2,"parameterNumberName":"U-component_of_WINDS"},"data":[0,0,0,0,0,0,0,0,0,0,0,0,0,0,0,0,0,0,0,0,0,0,0,0,0,0,0,0,0,0,0,0,0,0,0,0,0,0,0,0,0,0,0,0,0,0,0,0,0,0,0,0,0,0,0,0,0,0,-0.0286,-0.0285,0,-0.023,-0.0229,-0.0228,-0.0188,-0.0188,-0.0187,-0.0187,-0.0129,-0.0128,-0.0127,0,0,0,0,0,0,0,0,0,0,0,0,0,-0.0359,-0.0358,-0.0286,-0.0285,-0.0284,-0.023,-0.0229,-0.0228,-0.0188,-0.0188,-0.0187,-0.0187,-0.013,-0.0128,-0.0127,0,0,0,0,0,0,0,0,0,0,0,0,0,-0.0318,-0.0358,-0.0286,-0.0258,-0.0255,-0.023,-0.0229,-0.0228,-0.0188,-0.0187,-0.0187,-0.0187,-0.013,-0.0128,-0.0127,-0.0125,0,0,-0.0121,-0.012,0,0,0,0,0,0,0,0,-0.032,-0.0315,-0.0263,-0.026,-0.0256,-0.0215,-0.0234,-0.0193,-0.0188,-0.0213,-0.0187,-0.0186,-0.0158,-0.0154,-0.0145,-0.0122,-0.012,-0.0121,-0.012,-0.0119,-0.0118,0,0,0,0,0,0,0,-0.0323,-0.0317,-0.0264,-0.0262,-0.0258,-0.0248,-0.0242,-0.0226,-0.0189,-0.0211,-0.0208,-0.0202,-0.0156,-0.0146,-0.0143,-0.0119,-0.0121,-0.0119,-0.0118,-0.0117,-0.0094,-0.0095,0,0,0,0,0,0,-0.033,-0.032,-0.0265,-0.0262,-0.0287,-0.0247,-0.024,-0.0229,-0.0189,-0.0183,-0.0202,-0.02,-0.015,-0.0145,-0.0141,-0.0137,-0.0119,-0.0117,-0.0116,-0.0094,-0.0094,-0.0095,0,0,0,0,0,0,-0.0332,-0.0326,-0.0268,-0.029,-0.0282,-0.0247,-0.0234,-0.0228,-0.0218,-0.0183,-0.0176,-0.0199,-0.0149,-0.0143,-0.013,-0.0135,-0.0116,-0.0115,-0.0093,-0.0094,-0.0094,-0.013,0,0,0,0,0,0,-0.0334,-0.0327,-0.0326,-0.029,-0.0281,-0.0257,-0.0235,-0.0227,-0.0215,-0.0212,-0.0178,-0.0172,-0.0148,-0.0133,-0.0128,-0.0132,-0.0113,-0.0092,-0.0093,-0.0094,-0.0129,-0.0132,-0.0135,0,0,0,0,0,-0.0337,-0.0338,-0.0326,-0.0319,-0.0279,-0.0258,-0.0252,-0.0226,-0.0216,-0.0215,-0.0192,-0.0173,-0.0135,-0.0132,-0.0126,-0.013,-0.0092,-0.0093,-0.0094,-0.0127,-0.0132,-0.0135,0,0,0,0,0,0,-0.0375,-0.0333,-0.0319,-0.0308,-0.0287,-0.0251,-0.0249,-0.0231,-0.0212,-0.021,-0.0177,-0.017,-0.016,-0.0143,-0.014,-0.0127,-0.0111,-0.0111,-0.0138,-0.0142,-0.0145,-0.015,-0.0112,0,0,0,0,0,-0.0382,-0.0368,-0.0332,-0.0326,-0.0316,-0.0284,-0.0274,-0.0255,-0.0232,-0.0223,-0.0199,-0.0177,-0.0161,-0.015,-0.0133,-0.0126,-0.0118,-0.0126,-0.0129,-0.0132,-0.0133,-0.0129,-0.0132,-0.0098,-0.0098,-0.0098,0,0,-0.0396,-0.0371,-0.0365,-0.0333,-0.0314,-0.0301,-0.0277,-0.0264,-0.0254,-0.0221,-0.0207,-0.0189,-0.0162,-0.0152,-0.0146,-0.0138,-0.014,-0.0133,-0.0136,-0.0135,-0.013,-0.0133,-0.0136,-0.0099,-0.0099,-0.0099,0,0,-0.0416,-0.0396,-0.0389,-0.0371,-0.0343,-0.0322,-0.032,-0.0287,-0.0274,-0.0259,-0.0234,-0.0222,-0.0193,-0.0176,-0.0163,-0.0177,-0.0159,-0.0172,-0.019,-0.0187,-0.0189,-0.0192,-0.0198,-0.02,-0.0173,-0.0173,-0.0173,0,-0.0438,-0.0417,-0.0388,-0.0376,-0.0364,-0.0333,-0.0326,-0.031,-0.0278,-0.027,-0.026,-0.0225,-0.0204,-0.019,-0.0194,-0.0184,-0.0182,-0.0176,-0.0191,-0.0193,-0.0195,-0.02,-0.0202,-0.0175,-0.0174,-0.0174,-0.0174,0,-0.0445,-0.0431,-0.0429,-0.0399,-0.0386,-0.0377,-0.0347,-0.0337,-0.032,-0.03,-0.0286,-0.026,-0.0238,-0.0233,-0.0215,-0.0216,-0.0212,-0.0197,-0.0181,-0.02,-0.0205,-0.0207,-0.0177,-0.0177,-0.0176,-0.0176,0,0,-0.0488,-0.0442,-0.0442,-0.0428,-0.0395,-0.0384,-0.0374,-0.0352,-0.0344,-0.0323,-0.0314,-0.0291,-0.0278,-0.0263,-0.0244,-0.024,-0.0254,-0.0226,-0.0225,-0.0233,-0.0255,-0.0267,-0.027,-0.0242,-0.0242,-0.0242,-0.0258,0,-0.0504,-0.0484,-0.0457,-0.0447,-0.0434,-0.0404,-0.0396,-0.0375,-0.0356,-0.0342,-0.0321,-0.0306,-0.0289,-0.028,-0.0276,-0.0254,-0.0258,-0.0252,-0.0234,-0.0234,-0.0243,-0.0272,-0.0284,-0.03,-0.0259,-0.0259,-0.0259,0,-0.0519,-0.05,-0.0488,-0.0457,-0.045,-0.0443,-0.0421,-0.0408,-0.0384,-0.037,-0.0355,-0.0334,-0.0322,-0.0307,-0.0291,-0.0287,-0.0278,-0.0266,-0.0266,-0.0264,-0.0249,-0.0272,-0.0304,-0.0307,-0.0262,-0.0262,-0.0261,0,-0.0553,-0.0524,-0.0513,-0.0502,-0.0465,-0.0461,-0.0445,-0.042,-0.0409,-0.0389,-0.0382,-0.0361,-0.0351,-0.0335,-0.031,-0.0301,-0.0297,-0.0279,-0.0286,-0.0286,-0.0287,-0.0287,-0.0319,-0.0279,-0.0279,-0.0279,-0.0279,0,-0.0574,-0.0568,-0.0528,-0.0521,-0.0514,-0.0484,-0.0477,-0.0459,-0.0437,-0.0427,-0.04,-0.0391,-0.0357,-0.0344,-0.0324,-0.0314,-0.0309,-0.0298,-0.0293,-0.0301,-0.0303,-0.0296,-0.0294,-0.028,-0.028,-0.028,-0.028,0,-0.0611,-0.0583,-0.057,-0.0536,-0.0527,-0.0523,-0.0494,-0.0487,-0.0467,-0.0454,-0.0449,-0.0417,-0.0401,-0.0373,-0.0349,-0.0335,-0.033,-0.032,-0.0338,-0.0335,-0.0343,-0.0343,-0.0373,-0.0376,-0.0333,-0.0334,-0.0334,0,-0.0627,-0.0621,-0.0587,-0.0578,-0.0563,-0.0549,-0.0537,-0.0508,-0.0497,-0.0469,-0.0465,-0.0447,-0.043,-0.0405,-0.038,-0.0361,-0.0352,-0.0363,-0.0349,-0.0358,-0.0353,-0.0355,-0.0354,-0.0367,-0.0368,-0.0368,-0.0369,0,-0.0658,-0.0645,-0.0629,-0.0608,-0.0595,-0.0577,-0.0558,-0.0553,-0.0519,-0.0508,-0.0491,-0.0478,-0.0453,-0.0435,-0.0413,-0.0397,-0.0378,-0.0373,-0.0374,-0.0383,-0.0394,-0.0389,-0.0348,-0.0373,-0.0373,-0.0372,-0.0372,-0.0372,-0.0685,-0.068,-0.0655,-0.0638,-0.062,-0.0603,-0.0595,-0.0574,-0.0559,-0.0536,-0.0519,-0.0504,-0.048,-0.0448,-0.0433,-0.0421,-0.0412,-0.0413,-0.0413,-0.0414,-0.0418,-0.0395,-0.0416,-0.0416,-0.0416,-0.0416,-0.0416,0,-0.0717,-0.0699,-0.0684,-0.0658,-0.0645,-0.0627,-0.0605,-0.0596,-0.0583,-0.0562,-0.0546,-0.0527,-0.051,-0.0483,-0.0464,-0.0459,-0.045,-0.0455,-0.0456,-0.0453,-0.0426,-0.0428,-0.0463,-0.0463,-0.0463,-0.0463,-0.0463,-0.0463,-0.0731,-0.0721,-0.0705,-0.0686,-0.0668,-0.0652,-0.0642,-0.0626,-0.0609,-0.0589,-0.0574,-0.0557,-0.0534,-0.0513,-0.0497,-0.0489,-0.0484,-0.0492,-0.0482,-0.0459,-0.0454,-0.045,-0.0452,-0.0491,-0.0491,-0.051,-0.051,-0.051]},{"header":{"parameterUnit":"m.s-1","parameterCategory":1,"la1":30.2991,"la2":30.254,"lo1":-89.0895,"lo2":-89.0444,"dy":0.0017,"dx":0.0017,"nx":28,"ny":28,"refTime":"2023-08-02T03:00:00:Z","depth":0,"parameterNumber":3,"parameterNumberName":"V-component_of_WINDS"},"data":[0,0,0,0,0,0,0,0,0,0,0,0,0,0,0,0,0,0,0,0,0,0,0,0,0,0,0,0,0,0,0,0,0,0,0,0,0,0,0,0,0,0,0,0,0,0,0,0,0,0,0,0,0,0,0,0,0,0,3.2691,3.2691,0,3.2648,3.2648,3.2647,3.261,3.2609,3.2609,3.2609,3.2561,3.256,3.256,0,0,0,0,0,0,0,0,0,0,0,0,0,3.2738,3.2737,3.2691,3.2691,3.269,3.2648,3.2648,3.2647,3.261,3.2609,3.2609,3.2608,3.2562,3.256,3.2559,0,0,0,0,0,0,0,0,0,0,0,0,0,3.2709,3.2737,3.2691,3.2667,3.2664,3.2649,3.2648,3.2647,3.261,3.2609,3.2609,3.2608,3.2562,3.2561,3.2559,3.2564,0,0,3.2555,3.2555,0,0,0,0,0,0,0,0,3.271,3.2707,3.2671,3.2668,3.2665,3.2634,3.2647,3.2619,3.261,3.263,3.2609,3.2608,3.2586,3.2582,3.2576,3.2562,3.256,3.2555,3.2554,3.2554,3.2554,0,0,0,0,0,0,0,3.2712,3.2708,3.2674,3.267,3.2667,3.2657,3.2652,3.2641,3.2612,3.2629,3.2626,3.2621,3.2584,3.2577,3.2574,3.2559,3.2555,3.2554,3.2553,3.2553,3.2547,3.2548,0,0,0,0,0,0,3.2719,3.271,3.2675,3.2673,3.2687,3.2656,3.2651,3.2645,3.2612,3.2607,3.2622,3.262,3.258,3.2576,3.2572,3.2576,3.2554,3.2553,3.2552,3.2546,3.2547,3.2548,0,0,0,0,0,0,3.272,3.2716,3.2677,3.2691,3.2685,3.2656,3.2649,3.2644,3.2637,3.2607,3.2601,3.262,3.2579,3.2574,3.2567,3.2574,3.2552,3.2551,3.2546,3.2547,3.2548,3.2583,0,0,0,0,0,0,3.2721,3.2717,3.2719,3.2691,3.2685,3.2673,3.265,3.2644,3.2635,3.2632,3.2604,3.2599,3.2578,3.2569,3.2565,3.2572,3.255,3.2545,3.2546,3.2547,3.2581,3.2585,3.2589,0,0,0,0,0,3.2723,3.2729,3.2719,3.2715,3.2687,3.2674,3.267,3.2647,3.2636,3.2637,3.2618,3.26,3.2574,3.2568,3.2564,3.257,3.2544,3.2546,3.2547,3.2579,3.2584,3.2588,0,0,0,0,0,0,3.2757,3.2725,3.2713,3.2711,3.2696,3.2667,3.2668,3.2653,3.2639,3.2636,3.2607,3.2601,3.2597,3.2582,3.2577,3.2573,3.2557,3.2557,3.2582,3.2587,3.2591,3.2594,3.2549,0,0,0,0,0,3.2764,3.2757,3.273,3.273,3.2723,3.2697,3.2691,3.2675,3.2657,3.265,3.263,3.2612,3.26,3.2593,3.258,3.2579,3.2572,3.2581,3.2585,3.2588,3.2589,3.2587,3.2591,3.2553,3.2553,3.2553,0,0,3.2779,3.2761,3.2758,3.2737,3.2723,3.2715,3.2692,3.2685,3.2679,3.2648,3.264,3.2625,3.2604,3.26,3.2597,3.2588,3.2598,3.259,3.2593,3.2591,3.2589,3.2593,3.2596,3.2554,3.2553,3.2553,0,0,3.2802,3.2788,3.2787,3.2774,3.2754,3.2737,3.2737,3.2711,3.27,3.2692,3.2669,3.2661,3.2641,3.2627,3.2617,3.2636,3.2618,3.2633,3.2652,3.2651,3.2654,3.2656,3.2663,3.2666,3.2634,3.2634,3.2634,0,3.2822,3.2811,3.2788,3.2783,3.2774,3.2748,3.2747,3.2735,3.2711,3.2705,3.2695,3.267,3.2654,3.2646,3.2651,3.2644,3.2643,3.2635,3.2656,3.2658,3.266,3.2666,3.2668,3.2636,3.2635,3.2635,3.2635,0,3.2838,3.283,3.2832,3.2811,3.2803,3.28,3.2775,3.2769,3.2754,3.2738,3.273,3.271,3.2693,3.269,3.2674,3.268,3.2675,3.2661,3.2644,3.2666,3.2671,3.2673,3.2638,3.2638,3.2637,3.2637,0,0,3.288,3.2848,3.2848,3.2839,3.2815,3.2808,3.2804,3.2789,3.2784,3.2769,3.2764,3.2748,3.2735,3.2724,3.2707,3.2706,3.2723,3.2692,3.2691,3.2698,3.2728,3.2739,3.2742,3.2711,3.2711,3.2712,3.273,0,3.2899,3.289,3.287,3.2868,3.286,3.2836,3.2832,3.2816,3.2801,3.2792,3.2775,3.2765,3.2748,3.2742,3.274,3.2721,3.2728,3.272,3.2705,3.2705,3.2711,3.2744,3.2755,3.2773,3.2732,3.2732,3.2732,0,3.292,3.2907,3.2905,3.2882,3.2878,3.2875,3.286,3.2852,3.2834,3.2823,3.2812,3.2793,3.2786,3.2771,3.2761,3.2756,3.2749,3.2739,3.2739,3.2736,3.272,3.2742,3.2778,3.2781,3.2735,3.2735,3.2735,0,3.2951,3.2933,3.293,3.2922,3.2896,3.2894,3.2883,3.2864,3.2857,3.2843,3.2838,3.2823,3.2815,3.2803,3.2781,3.2772,3.2774,3.2756,3.2764,3.2764,3.2765,3.2765,3.28,3.2761,3.2761,3.2761,3.2761,0,3.2974,3.2973,3.2943,3.2941,3.2939,3.2916,3.2915,3.2901,3.2885,3.2879,3.2856,3.2851,3.2822,3.2813,3.2796,3.279,3.2786,3.2777,3.2772,3.2779,3.278,3.2773,3.2771,3.2762,3.2761,3.2761,3.2761,0,3.3008,3.2988,3.2982,3.2958,3.2952,3.2952,3.2931,3.2927,3.2912,3.2904,3.2901,3.2876,3.2865,3.2842,3.2823,3.2811,3.281,3.2802,3.2816,3.2813,3.2822,3.2821,3.2854,3.2856,3.2816,3.2817,3.2817,0,3.3024,3.3023,3.2999,3.2994,3.2984,3.2976,3.2969,3.2946,3.2939,3.2919,3.2918,3.2905,3.2893,3.2876,3.2855,3.2841,3.2832,3.2844,3.283,3.2837,3.2832,3.2832,3.2832,3.2847,3.2848,3.2849,3.2849,0,3.3054,3.3044,3.3035,3.3023,3.3015,3.3004,3.2991,3.2988,3.2962,3.2955,3.2944,3.2935,3.2917,3.2904,3.2888,3.2875,3.2857,3.2854,3.2855,3.2861,3.287,3.2865,3.2825,3.2853,3.2853,3.2852,3.2852,3.2852,3.3079,3.3077,3.3061,3.3051,3.304,3.3029,3.3025,3.3009,3.3,3.2984,3.2971,3.2961,3.2943,3.2919,3.2908,3.2899,3.289,3.2892,3.2892,3.2893,3.2895,3.2872,3.2896,3.2895,3.2895,3.2895,3.2895,0,3.3108,3.3097,3.3088,3.3072,3.3065,3.3051,3.3036,3.303,3.3022,3.3008,3.2998,3.2985,3.2973,3.2952,3.2938,3.2935,3.2926,3.2932,3.2931,3.2929,3.2904,3.2904,3.2939,3.2939,3.2939,3.2939,3.2939,3.2939,3.3122,3.3119,3.3108,3.3098,3.3086,3.3077,3.307,3.306,3.3048,3.3036,3.3026,3.3013,3.2996,3.298,3.2969,3.2963,3.2958,3.2966,3.2958,3.2935,3.293,3.2926,3.2927,3.2966,3.2966,3.2983,3.2983,3.2984]}]]